Погода в Провинции Камигин

Филиппины     9°10′22″N   124°43′10″E
темп.,
°C
ветер,
м/с
пор.,
м/с
влажн.,
%
обл.,
%
осадки,
мм/ч
давл.,
гПа
погр.,
м
22 октября, пт
пт2223:00+27зсз228098 0.0 1011311
02:00+26ссв228376 0.8 1009357
05:00+26в238556 1.8 1010206
08:00+27в348298 2.9 1012463
11:00+26св348363 3.1 1011297
14:00+27св458387 6.0 1009527
17:00+26св4685100 3.6 1009346
20:00+26св568199 7.3 1012483
23 октября, сб
сб2323:00+26св5580100 1.1 1011538
02:00+26всв448441 1.6 1009481
05:00+25в448793 4.6 1010260
08:00+26в4484100 6.7 1012389
11:00+28всв2274100 0.5 1010563
14:00+27св227675 1.2 1008518
17:00+27всв2276100 0.2 1009381
20:00+26всв2380100 3.1 1012225
24 октября, вс
вс2423:00+26ююв117981 1.4 1011104
02:00+25зюз3387100 3.8 1010132
05:00+25зюз118539 1.3 1010207
08:00+26в117910 1.4 1011442
11:00+27ссз1179100 0.6 1010497
14:00+27зсз2280100 2.9 1008380
17:00+27сз1177100 1.0 1009365
20:00+26ю2283100 2.4 1011209
25 октября, пн
пн2523:00+25юз348697 3.4 1011186
02:00+25юз2385100 8.1 1010171
05:00+25в2287100 3.3 1010199
08:00+26всв2283100 4.7 1012408
11:00+26с1180100 0.2 1010501
14:00+26с2182100 0.4 1008373
17:00+26ссв118389 0.2 1009295
20:00+26св228291 0.2 1011309
26 октября, вт
вт2623:00+26в228391 0.9 1011206
02:00+26юв0081100 1.6 1009227
05:00+26всв1181100 0.2 1010345
08:00+27вюв1178100 0.2 1011538
11:00+28всв227531 0.1 1010552
14:00+28св217197 0.6 1007579
17:00+27ссв1174100 0.0 1008276
20:00+27всв2276100 0.0 1010316